#timestamp,LO_Frequency,Hit,StdDev 
1600495215.3,286047000.3,P
1600495235.1,286047000.8,N
1600495255.9,286047001.1,N
1600495275.7,286046999.3,N
1600495295.5,286046999.7,N
1600495315.4,286046996.9,N
1600495335.2,286046997.2,N
1600495355.1,286046998.9,N
1600495356.0,286046998.9,N
1600495375.8,286046997.5,N
1600495395.6,286046999.5,N
1600495415.5,286046996.8,N
1600495435.3,286046997.1,N
1600495455.1,286046995.1,N
1600495475.9,286046995.8,N
1600495495.7,286046996.0,N
1600495515.6,286046993.3,N
1600495535.4,286046993.3,N
1600495555.2,286046993.5,N
1600495575.1,286046994.5,N
1600495576.0,286046994.5,N
1600495595.8,286046993.4,N
1600495615.6,286046992.3,N
1600495635.5,286046992.9,N
1600495655.3,286046994.8,N
1600495675.2,286046994.0,N
1600495695.9,286046991.8,N
1600495715.7,286046992.3,N
1600495735.6,286046990.2,Y
1600495755.4,286046997.6,P
1600495775.3,286046997.1,P
1600495795.1,286046997.8,P
1600495796.0,286046997.8,Y
1600495815.8,286046999.2,P
1600495835.7,286046999.5,N
1600495855.5,286046999.0,N
1600495875.3,286046998.8,N
1600495895.2,286046998.7,N
1600495915.0,286046998.8,N
1600495915.9,286046998.8,N
1600495935.8,286046996.8,Y
1600495955.6,286046998.9,P
1600495975.4,286046998.6,P
1600495995.3,286046998.8,P
1600496015.1,286046999.1,Y
1600496035.9,286046999.0,P
1600496055.7,286046998.7,P
1600496075.5,286047001.1,P
1600496095.4,286046998.5,N
1600496115.2,286047001.0,N
1600496135.1,286047000.4,N
1600496136.0,286047000.4,N
1600496155.8,286047000.9,N
1600496175.6,286046999.9,N
1600496195.5,286047002.6,N
1600496215.3,286047002.3,N
1600496235.1,286047000.1,N
1600496255.9,286046998.5,N
1600496275.7,286046998.3,N
1600496295.6,286046998.3,N
1600496315.4,286047000.3,N
1600496335.2,286047002.4,N
1600496355.1,286047002.3,N
1600496356.0,286047002.3,N
1600496375.8,286047001.8,N
1600496395.7,286047001.9,N
1600496415.5,286046999.7,N
1600496435.3,286047002.4,N
1600496455.2,286047000.1,N
1600496475.9,286047003.8,N
1600496495.7,286047003.7,N
1600496515.6,286047004.3,N
1600496535.4,286047002.9,N
1600496555.2,286047004.2,N
1600496575.1,286047003.1,N
1600496576.0,286047003.1,N
1600496595.8,286046999.9,N
1600496615.7,286047000.4,N
1600496635.5,286047001.1,N
1600496655.3,286047000.6,N
1600496675.2,286046999.8,N
1600496695.0,286046998.7,N
1600496695.9,286046998.7,N
1600496715.8,286047000.4,N
1600496735.6,286047001.6,N
1600496755.4,286047000.3,N
1600496775.3,286046999.8,N
1600496795.1,286047001.2,N
1600496815.8,286047000.6,N
1600496835.7,286047002.0,N
1600496855.5,286047002.6,N
1600496875.4,286047002.7,N
1600496895.2,286047002.1,N
1600496915.1,286047002.2,N
1600496916.0,286047002.2,N
1600496935.8,286047000.1,N
1600496955.6,286047001.6,N
1600496975.5,286047000.1,N
1600496995.3,286047002.8,N
1600497015.2,286046999.9,N
1600497035.9,286047002.4,N
1600497055.7,286047002.2,N
1600497075.6,286047002.0,N
1600497095.4,286047002.0,N
1600497115.2,286047002.5,N
1600497135.1,286047002.7,N
1600497136.0,286047002.7,N
1600497155.8,286047002.8,N
1600497175.7,286047002.6,N
1600497195.5,286047001.6,N
1600497215.3,286047002.7,N
1600497235.2,286046999.7,N
1600497255.0,286047001.7,N
1600497255.9,286047001.7,N
1600497275.8,286047001.8,N
1600497295.6,286047002.6,N
1600497315.4,286047004.3,Y
1600497335.3,286047000.6,P
1600497355.1,286047000.0,N
1600497375.8,286046999.0,N
1600497395.7,286046998.4,N
1600497415.5,286047001.0,N
1600497435.4,286047000.8,N
1600497455.2,286046999.8,N
1600497475.0,286047000.5,N
1600497475.9,286047000.5,N
1600497495.8,286046999.9,N
1600497515.6,286047002.1,N
1600497535.4,286047002.1,N
1600497555.3,286047002.5,N
1600497575.1,286047001.5,N
1600497595.9,286047002.0,N
1600497615.7,286047002.5,N
1600497635.5,286047002.1,N
1600497655.4,286047002.4,N
1600497675.2,286047002.3,N
1600497695.0,286046999.9,N
1600497696.0,286046999.9,N
1600497715.8,286047002.1,N
1600497735.6,286047002.2,N
1600497755.5,286047001.9,N
1600497775.3,286047000.4,N
1600497795.1,286047002.1,N
1600497815.9,286047000.6,N
1600497835.7,286047000.8,N
1600497855.6,286047000.8,N
1600497875.4,286046999.8,N
1600497895.2,286047002.1,N
1600497915.1,286047000.4,N
1600497916.0,286047000.4,N
1600497935.8,286047002.6,N
1600497955.7,286047000.9,N
1600497975.5,286046998.3,N
1600497995.3,286046998.8,N
1600498015.2,286047000.9,N
1600498035.0,286047000.3,N
1600498035.9,286047000.3,N
1600498055.8,286047001.4,N
1600498075.6,286047004.2,Y
1600498095.4,286047001.8,P
1600498115.3,286047002.3,P
1600498135.1,286046999.1,N
1600498155.8,286046996.9,N
1600498175.7,286046999.1,N
1600498195.5,286046999.3,N
1600498215.4,286046999.4,N
1600498235.2,286046997.0,N
1600498255.0,286046997.0,N
1600498255.9,286046997.0,N
1600498275.8,286046999.6,N
1600498295.6,286046999.1,N
1600498315.4,286046996.9,N
1600498335.3,286047001.2,N
1600498355.1,286047000.6,N
1600498375.9,286046999.7,N
1600498395.7,286047000.5,N
1600498415.5,286047000.6,N
1600498435.4,286046998.6,N
1600498455.2,286046999.1,N
1600498475.0,286046999.3,N
1600498476.0,286046999.3,N
1600498495.8,286046999.0,N
1600498515.6,286046999.0,N
1600498535.5,286047000.9,N
1600498555.3,286047000.0,N
1600498575.1,286047000.9,N
1600498595.9,286046998.7,N
1600498615.7,286046998.2,N
1600498635.5,286046998.6,N
1600498655.4,286046998.2,N
1600498675.2,286047002.6,N
1600498695.1,286047001.4,N
1600498696.0,286047001.4,N
1600498715.8,286047002.8,N
1600498735.6,286047001.5,N
1600498755.5,286047001.9,N
1600498775.3,286047003.1,N
1600498795.1,286047004.0,N
